Flag for Canada Weather past 2 weeks in Sidney, British Columbia, Canada

Now
36 °F

Partly cloudy.


Feels Like: 32 °F
Forecast: 39 / 43 °F
Wind: 5 mph from Southwest

Location: Victoria Int. Airportb. C.

Current Time: Dec 26, 2014 at 12:01:01 AM

Latest Report: Dec 25, 2014 at 11:00 PM


Visibility: 30 mi

Pressure: 30.28 "Hg

Humidity: 93%

Dew point: 34 °F

Location of SidneyLocation

Historic Weather in Sidney — Graph

°F

Sidney temperature yesterday

Maximum temperature yesterday: 45 °F (at 1:00 PM)
Minimum temperature yesterday: 34 °F (at 6:00 AM)
Average temperature yesterday: 38 °F

Past Weeks' High & Low Weather Summary

 TemperatureHumidityPressure
High55 °F (Dec 20, 8:00 PM)100% (Dec 11, 3:00 AM)30.38 "Hg (Dec 11, 3:00 AM)
Low30 °F (Dec 15, 2:00 AM)62% (Dec 21, 5:00 PM)29.10 "Hg (Dec 11, 8:00 PM)
Average44 °F87%29.89 "Hg
* Reported Dec 10 11:00 PM — Dec 25 11:00 PM, Sidney, Weather by CustomWeather, © 2014

Note: Actual official high and low records may vary slightly from our data, if they occured in-between our weather recording intervals... More about our weather records

Advertising

Sidney weather history for previous 24 hours

 ConditionsComfort  
Time TempWeatherWind HumidityBarometerVisibility
11:00 PM
Dec 25
36 °FPartly cloudy.5 mph93%30.28 "Hg30 mi
10:00 PM37 °FPassing clouds.6 mph93%30.30 "Hg30 mi
9:00 PM37 °FPartly cloudy.6 mph100%30.28 "Hg30 mi
8:00 PM37 °FPassing clouds.5 mph100%30.27 "Hg30 mi
7:00 PM39 °FPassing clouds.3 mph93%30.25 "Hg30 mi
6:00 PM36 °FPartly cloudy.2 mph93%30.24 "Hg30 mi
5:00 PM37 °FPassing clouds.2 mph93%30.23 "Hg30 mi
4:00 PM39 °FPartly sunny.No wind93%30.23 "Hg30 mi
3:00 PM43 °FPartly sunny.3 mph76%30.22 "Hg30 mi
2:00 PM45 °FPartly sunny.5 mph76%30.20 "Hg30 mi
1:00 PM45 °FPartly sunny.3 mph76%30.19 "Hg30 mi
12:00 PM41 °FScattered clouds.6 mph87%30.19 "Hg30 mi
11:00 AM39 °FPassing clouds.7 mph87%30.20 "Hg30 mi
10:00 AM37 °FPassing clouds.6 mph93%30.19 "Hg30 mi
9:00 AM36 °FPassing clouds.6 mph93%30.17 "Hg30 mi
8:00 AM34 °FPassing clouds.9 mph100%30.15 "Hg30 mi
7:00 AM34 °FPassing clouds.5 mph100%30.14 "Hg30 mi
6:00 AM34 °FPassing clouds.8 mph100%30.12 "Hg30 mi
5:00 AM36 °FPassing clouds.7 mph93%30.11 "Hg30 mi
4:00 AM36 °FPassing clouds.7 mph93%30.11 "Hg30 mi
3:00 AM36 °FPassing clouds.8 mph93%30.09 "Hg30 mi
2:00 AM37 °FPassing clouds.7 mph93%30.08 "Hg30 mi
1:00 AM37 °FPassing clouds.7 mph93%30.06 "Hg30 mi
12:00 AM37 °FPassing clouds.5 mph93%30.04 "Hg30 mi
Weather by CustomWeather, © 2014

See weather overviewHow to use our weather pages